DW0860 Weather Reports


time (UTC)temp
C
wind
direction
speed
KPH
gust
KPH
rain 1hr
cm
rain 24hr
cm
rain mn
cm
humidity
%
barometer
mb
20260509021555 14 0 0.0 0.0 0.00 0.00 0.00 58 1010.6
20260509020054 14 0 0.0 0.0 0.00 0.00 0.00 56 1010.7
20260509014556 15 0 0.0 0.0 0.00 0.00 0.00 55 1010.7
20260509013053 15 0 0.0 0.0 0.00 0.00 0.00 53 1010.6
20260509011549 16 0 0.0 0.0 0.00 0.00 0.00 52 1010.6
20260509010055 16 0 0.0 0.0 0.00 0.00 0.00 51 1010.6
20260509004550 17 0 0.0 0.0 0.00 0.00 0.00 50 1010.6
20260509003054 18 0 0.0 4.8 0.00 0.00 0.00 47 1010.8
20260509001550 18 197 1.6 8.0 0.00 0.00 0.00 44 1011.0
20260509000056 19 177 4.8 11.3 0.00 0.00 0.00 42 1011.0
20260508234552 20 204 4.8 12.9 0.00 0.00 0.00 42 1011.4
20260508233047 20 190 8.0 16.1 0.00 0.00 0.00 40 1011.4
20260508231554 20 188 6.4 16.1 0.00 0.00 0.00 40 1011.5
20260508224554 21 223 11.3 19.3 0.00 0.00 0.00 36 1011.6
20260508223051 21 219 6.4 14.5 0.00 0.00 0.00 40 1011.6
20260508221554 21 182 8.0 20.9 0.00 0.00 0.00 38 1011.6
20260508220056 21 200 6.4 17.7 0.00 0.00 0.00 37 1011.4
20260508214552 21 225 8.0 16.1 0.00 0.00 0.00 33 1011.6
20260508213051 21 227 8.0 16.1 0.00 0.00 0.00 34 1011.8
20260508211550 21 221 12.9 24.1 0.00 0.00 0.00 35 1011.5
20260508210050 21 164 8.0 16.1 0.00 0.00 0.00 35 1011.5
20260508204551 21 197 6.4 19.3 0.00 0.00 0.00 33 1011.8
20260508203059 21 246 8.0 19.3 0.00 0.00 0.00 34 1012.1
20260508201555 21 194 4.8 19.3 0.00 0.00 0.00 40 1012.4
20260508200059 21 232 6.4 17.7 0.00 0.00 0.00 37 1012.8
20260508194549 21 195 8.0 20.9 0.00 0.00 0.00 33 1012.9
20260508193057 21 148 11.3 17.7 0.00 0.00 0.00 38 1012.8
20260508191556 21 123 9.7 24.1 0.00 0.00 0.00 38 1012.8
20260508190052 20 180 8.0 19.3 0.00 0.00 0.00 43 1013.0
20260508184551 20 205 9.7 20.9 0.00 0.00 0.00 37 1013.2
20260508183050 20 180 8.0 22.5 0.00 0.00 0.00 43 1013.4
20260508181552 20 169 12.9 25.7 0.00 0.00 0.00 43 1013.6
20260508180052 20 175 8.0 20.9 0.00 0.00 0.00 44 1013.9
20260508174550 20 188 9.7 17.7 0.00 0.00 0.00 39 1014.4
20260508173053 20 143 4.8 17.7 0.00 0.00 0.00 47 1014.5
20260508171553 19 126 6.4 14.5 0.00 0.00 0.00 43 1015.1
20260508170059 19 220 8.0 16.1 0.00 0.00 0.00 43 1015.3
20260508164552 19 138 4.8 12.9 0.00 0.00 0.00 47 1015.5
20260508163054 18 95 4.8 14.5 0.00 0.00 0.00 46 1015.7
20260508161554 18 143 6.4 12.9 0.00 0.00 0.00 45 1016.0
20260508160055 18 129 6.4 19.3 0.00 0.00 0.00 52 1016.2
20260508154554 17 173 4.8 16.1 0.00 0.00 0.00 48 1016.4
20260508153052 17 159 8.0 17.7 0.00 0.00 0.00 50 1016.5
20260508151558 17 190 8.0 14.5 0.00 0.00 0.00 48 1016.7
20260508150056 16 197 6.4 14.5 0.00 0.00 0.00 55 1016.8
20260508144554 16 206 4.8 11.3 0.00 0.00 0.00 56 1017.0
20260508143053 15 159 6.4 16.1 0.00 0.00 0.00 58 1017.0
20260508141557 15 150 6.4 14.5 0.00 0.00 0.00 62 1017.3
20260508140050 14 192 8.0 12.9 0.00 0.00 0.00 62 1017.3
20260508134553 13 142 3.2 9.7 0.00 0.00 0.00 73 1017.2
20260508133051 12 168 1.6 8.0 0.00 0.00 0.00 76 1017.2
20260508131600 11 166 1.6 8.0 0.00 0.00 0.00 78 1017.2
20260508130109 10 169 1.6 8.0 0.00 0.00 0.00 80 1017.1
20260508124551 9 148 0.0 3.2 0.00 0.00 0.00 87 1017.0
20260508123049 7 123 1.6 4.8 0.00 0.00 0.00 93 1017.0
20260508121602 6 119 1.6 4.8 0.00 0.00 0.00 96 1016.9
20260508120054 4 0 0.0 0.0 0.00 0.00 0.00 96 1016.7
20260508114556 2 0 0.0 0.0 0.00 0.00 0.00 96 1016.6
20260508113052 2 0 0.0 0.0 0.00 0.00 0.00 95 1016.6
20260508111554 2 0 0.0 0.0 0.00 0.00 0.00 95 1016.5
20260508110057 1 0 0.0 0.0 0.00 0.00 0.00 95 1016.4
20260508104621 1 0 0.0 0.0 0.00 0.00 0.00 95 1016.3
20260508103058 1 0 0.0 0.0 0.00 0.00 0.00 95 1016.2
20260508101556 1 0 0.0 0.0 0.00 0.00 0.00 95 1016.1
20260508100053 1 0 0.0 0.0 0.00 0.00 0.00 95 1015.9
20260508094555 2 0 0.0 0.0 0.00 0.00 0.00 94 1016.0
20260508093053 2 0 0.0 0.0 0.00 0.00 0.00 94 1015.9
20260508091609 2 0 0.0 0.0 0.00 0.00 0.00 94 1015.9
20260508090106 2 0 0.0 0.0 0.00 0.00 0.00 94 1015.9
20260508084555 2 0 0.0 0.0 0.00 0.00 0.00 94 1016.0
20260508083110 2 0 0.0 0.0 0.00 0.00 0.00 94 1016.0
20260508081559 2 0 0.0 0.0 0.00 0.00 0.00 94 1016.0
20260508080057 2 0 0.0 0.0 0.00 0.00 0.00 94 1016.1
20260508074552 2 0 0.0 0.0 0.00 0.00 0.00 93 1016.0
20260508073050 2 0 0.0 0.0 0.00 0.00 0.00 93 1016.0
20260508071602 3 0 0.0 0.0 0.00 0.00 0.00 93 1016.2
20260508070138 3 0 0.0 0.0 0.00 0.00 0.00 92 1016.3
20260508064613 3 0 0.0 0.0 0.00 0.00 0.00 92 1016.4
20260508063050 3 0 0.0 0.0 0.00 0.00 0.00 92 1016.3
20260508061603 3 0 0.0 0.0 0.00 0.00 0.00 91 1016.2
20260508060055 3 0 0.0 0.0 0.00 0.00 0.00 91 1016.1
20260508054554 3 0 0.0 0.0 0.00 0.00 0.00 91 1016.3
20260508053104 3 0 0.0 0.0 0.00 0.00 0.00 91 1016.3
20260508051554 4 0 0.0 0.0 0.00 0.00 0.00 90 1016.3
20260508050100 4 0 0.0 0.0 0.00 0.00 0.00 90 1016.4
20260508044555 4 0 0.0 0.0 0.00 0.00 0.00 89 1016.5
20260508043103 5 0 0.0 0.0 0.00 0.00 0.00 88 1016.3
20260508041554 5 0 0.0 0.0 0.00 0.00 0.00 87 1016.0
20260508040101 5 0 0.0 0.0 0.00 0.00 0.00 86 1015.8
20260508034555 5 0 0.0 0.0 0.00 0.00 0.00 85 1015.9
20260508033051 6 0 0.0 0.0 0.00 0.00 0.00 83 1015.9
20260508031554 6 0 0.0 0.0 0.00 0.00 0.00 82 1016.1
20260508030100 6 0 0.0 0.0 0.00 0.00 0.00 82 1016.1
20260508024558 6 245 1.6 11.3 0.00 0.00 0.00 81 1016.1
20260508023050 7 0 0.0 0.0 0.00 0.00 0.00 80 1015.9